Buckland, AK

6:10 AM AKDT on September 19, 2017 (GMT -0800)
Buckland

Weather History for PABL - May, 2013

Change the Weather History Date:

Thursday, May 9, 2013

  Actual Average (PASK) Record (PASK)
Temperature  
Mean Temperature 25 °F -  
Max Temperature 35 °F 34 °F 51 °F (2016)
Min Temperature 15 °F 22 °F 3 °F (2001)
Degree Days  
Heating Degree Days 40    
Moisture  
Dew Point 19 °F    
Average Humidity 80    
Maximum Humidity 93    
Minimum Humidity 65    
Precipitation  
Precipitation 0.00 in - - ()
Sea Level Pressure  
Sea Level Pressure 30.35 in    
Wind  
Wind Speed 5 mph (SE)    
Max Wind Speed 9 mph    
Max Gust Speed -    
Visibility 10 miles    
Events      
Averages and records for this station are not official NWS values.
T = Trace of Precipitation, MM = Missing Value Source: NWS Daily Summary

Daily Weather History Graph

Daily Weather History Graph

Search for Another Location

Airport or City:

Trip Planner

Search our weather history database for the weather conditions in past years. The results will help you decide how hot, cold, wet, or windy it might be!

Date:

Astronomy

May. 09, 2013 Rise Set
Actual Time 5:28 AM AKDT 11:56 PM AKDT
Civil Twilight 3:31 AM AKDT 2:03 AM AKDT
Nautical Twilight Sun does not set Sun does not set
Astronomical Twilight Sun does not set Sun does not set
Moon 5:37 AM AKDT (5/9) No Moon Set
Length of Visible Light 22h 31m
Length of Day
18h 27m
Waning Crescent, 0% of the Moon is Illuminated
May 9
Waning Crescent
May 9
New
May 17
First Quarter
May 24
Full
May 31
Last Quarter

Hourly Weather History & Observations

Time (AKDT) Temp. Windchill Dew Point Humidity Pressure Visibility Wind Dir Wind Speed Gust Speed Precip Events Conditions
12:16 AM 24.8 °F 15.3 °F 19.4 °F 80% 30.38 in 10.0 mi ESE 9.2 mph - N/A   Clear
12:36 AM 24.8 °F 16.1 °F 19.4 °F 80% 30.38 in 10.0 mi ESE 8.1 mph - N/A   Clear
12:56 AM 24.8 °F 15.3 °F 19.4 °F 80% 30.39 in 10.0 mi ESE 9.2 mph - N/A   Clear
1:16 AM 23.0 °F 13.9 °F 19.4 °F 86% 30.39 in 10.0 mi ESE 8.1 mph - N/A   Clear
1:36 AM 24.8 °F 19.1 °F 19.4 °F 80% 30.39 in 10.0 mi SE 4.6 mph - N/A   Clear
1:56 AM 23.0 °F - 17.6 °F 80% 30.39 in 10.0 mi Calm Calm - N/A   Clear
2:16 AM 21.2 °F 16.4 °F 17.6 °F 86% 30.39 in 10.0 mi SSE 3.5 mph - N/A   Clear
2:36 AM 19.4 °F 11.5 °F 15.8 °F 86% 30.39 in 10.0 mi South 5.8 mph - N/A   Clear
2:56 AM 19.4 °F 12.8 °F 15.8 °F 86% 30.39 in 10.0 mi South 4.6 mph - N/A   Clear
3:16 AM 19.4 °F 11.5 °F 17.6 °F 93% 30.39 in 10.0 mi SE 5.8 mph - N/A   Clear
3:36 AM 19.4 °F 14.3 °F 17.6 °F 93% 30.39 in 10.0 mi SE 3.5 mph - N/A   Clear
3:56 AM 19.4 °F 11.5 °F 15.8 °F 86% 30.39 in 10.0 mi SSE 5.8 mph - N/A   Clear
4:16 AM 17.6 °F 8.2 °F 15.8 °F 93% 30.39 in 10.0 mi SSE 6.9 mph - N/A   Clear
4:36 AM 17.6 °F 8.2 °F 15.8 °F 93% 30.38 in 10.0 mi SE 6.9 mph - N/A   Clear
4:56 AM 17.6 °F 8.2 °F 14.0 °F 86% 30.38 in 10.0 mi SSE 6.9 mph - N/A   Clear
5:16 AM 17.6 °F 12.3 °F 14.0 °F 86% 30.38 in 10.0 mi SSE 3.5 mph - N/A   Clear
5:36 AM 15.8 °F 7.2 °F 12.2 °F 86% 30.38 in 10.0 mi SE 5.8 mph - N/A   Clear
5:56 AM 15.8 °F 8.6 °F 12.2 °F 86% 30.37 in 10.0 mi SSE 4.6 mph - N/A   Clear
6:16 AM 15.8 °F 8.6 °F 12.2 °F 86% 30.37 in 10.0 mi SSE 4.6 mph - N/A   Clear
6:36 AM 15.8 °F 7.2 °F 12.2 °F 86% 30.37 in 10.0 mi South 5.8 mph - N/A   Clear
6:56 AM 15.8 °F 6.1 °F 12.2 °F 86% 30.37 in 10.0 mi South 6.9 mph - N/A   Clear
7:16 AM 15.8 °F 7.2 °F 12.2 °F 86% 30.36 in 10.0 mi SSE 5.8 mph - N/A   Clear
7:36 AM 15.8 °F 7.2 °F 12.2 °F 86% 30.36 in 10.0 mi SSE 5.8 mph - N/A   Clear
7:56 AM 15.8 °F 10.2 °F 12.2 °F 86% 30.36 in 10.0 mi SSE 3.5 mph - N/A   Clear
8:16 AM 15.8 °F 8.6 °F 12.2 °F 86% 30.36 in 10.0 mi SSE 4.6 mph - N/A   Clear
8:36 AM 17.6 °F 9.3 °F 12.2 °F 79% 30.36 in 10.0 mi SSE 5.8 mph - N/A   Clear
8:56 AM 17.6 °F 12.3 °F 12.2 °F 79% 30.36 in 10.0 mi SSE 3.5 mph - N/A   Clear
9:16 AM 17.6 °F - 14.0 °F 86% 30.36 in 10.0 mi Calm Calm - N/A   Clear
9:36 AM 19.4 °F 10.4 °F 14.0 °F 80% 30.36 in 10.0 mi SSE 6.9 mph - N/A   Clear
9:56 AM 19.4 °F 10.4 °F 15.8 °F 86% 30.36 in 10.0 mi SSE 6.9 mph - N/A   Clear
10:16 AM 19.4 °F 14.3 °F 15.8 °F 86% 30.36 in 10.0 mi SSE 3.5 mph - N/A   Clear
10:36 AM 19.4 °F 10.4 °F 15.8 °F 86% 30.36 in 10.0 mi South 6.9 mph - N/A   Clear
10:56 AM 21.2 °F 12.6 °F 15.8 °F 80% 30.36 in 10.0 mi SSE 6.9 mph - N/A   Clear
11:16 AM 21.2 °F 10.9 °F 15.8 °F 80% 30.36 in 10.0 mi SSE 9.2 mph - N/A   Clear
11:36 AM 21.2 °F 13.6 °F 17.6 °F 86% 30.37 in 10.0 mi SSE 5.8 mph - N/A   Clear
11:56 AM 23.0 °F 15.8 °F 17.6 °F 80% 30.36 in 10.0 mi SSE 5.8 mph - N/A   Clear
12:16 PM 24.8 °F 17.9 °F 17.6 °F 74% 30.36 in 10.0 mi SSE 5.8 mph - N/A   Clear
12:36 PM 24.8 °F 19.1 °F 17.6 °F 74% 30.36 in 10.0 mi SSE 4.6 mph - N/A   Clear
12:56 PM 24.8 °F 16.9 °F 19.4 °F 80% 30.36 in 10.0 mi SE 6.9 mph - N/A   Clear
1:16 PM 26.6 °F 21.2 °F 19.4 °F 74% 30.35 in 10.0 mi SSE 4.6 mph - N/A   Clear
1:36 PM 26.6 °F 20.0 °F 19.4 °F 74% 30.35 in 10.0 mi SE 5.8 mph - N/A   Clear
1:56 PM 26.6 °F 20.0 °F 21.2 °F 80% 30.35 in 10.0 mi SSE 5.8 mph - N/A   Clear
2:16 PM 28.4 °F 23.3 °F 21.2 °F 74% 30.35 in 10.0 mi SSE 4.6 mph - N/A   Clear
2:36 PM 28.4 °F 23.3 °F 21.2 °F 74% 30.35 in 10.0 mi SSE 4.6 mph - N/A   Clear
2:56 PM 28.4 °F 24.6 °F 21.2 °F 74% 30.34 in 10.0 mi SE 3.5 mph - N/A   Clear
3:16 PM 30.2 °F 26.7 °F 21.2 °F 69% 30.34 in 10.0 mi SE 3.5 mph - N/A   Clear
3:36 PM 30.2 °F 26.7 °F 21.2 °F 69% 30.34 in 10.0 mi SE 3.5 mph - N/A   Clear
3:56 PM 30.2 °F - 23.0 °F 75% 30.34 in 10.0 mi Calm Calm - N/A   Clear
4:16 PM 32.0 °F 28.7 °F 24.8 °F 75% 30.33 in 10.0 mi SE 3.5 mph - N/A   Clear
4:36 PM 33.8 °F 29.6 °F 24.8 °F 70% 30.33 in 10.0 mi SE 4.6 mph - N/A   Clear
4:56 PM 32.0 °F 27.5 °F 24.8 °F 75% 30.33 in 10.0 mi SSE 4.6 mph - N/A   Clear
5:16 PM 33.8 °F 30.8 °F 24.8 °F 70% 30.32 in 10.0 mi SSE 3.5 mph - N/A   Clear
5:56 PM 33.8 °F - 24.8 °F 70% 30.32 in 10.0 mi Calm Calm - N/A   Clear
6:16 PM 33.8 °F - 26.6 °F 75% 30.31 in 10.0 mi Calm Calm - N/A   Clear
6:36 PM 35.6 °F - 24.8 °F 65% 30.31 in 10.0 mi Calm Calm - N/A   Clear
6:56 PM 33.8 °F - 24.8 °F 70% 30.31 in 10.0 mi Calm Calm - N/A   Clear
7:16 PM 33.8 °F 30.8 °F 24.8 °F 70% 30.31 in 10.0 mi South 3.5 mph - N/A   Clear
7:56 PM 35.6 °F 32.8 °F 26.6 °F 70% 30.30 in 10.0 mi SE 3.5 mph - N/A   Clear
8:16 PM 33.8 °F 29.6 °F 26.6 °F 75% 30.30 in 10.0 mi SE 4.6 mph - N/A   Clear
8:36 PM 33.8 °F 29.6 °F 24.8 °F 70% 30.30 in 10.0 mi ESE 4.6 mph - N/A   Clear
8:56 PM 33.8 °F 29.6 °F 26.6 °F 75% 30.29 in 10.0 mi SE 4.6 mph - N/A   Clear
9:16 PM 33.8 °F - 26.6 °F 75% 30.29 in 10.0 mi Calm Calm - N/A   Clear
9:36 PM 33.8 °F 30.8 °F 26.6 °F 75% 30.29 in 10.0 mi SE 3.5 mph - N/A   Clear
9:56 PM 32.0 °F 27.5 °F 26.6 °F 80% 30.29 in 10.0 mi SSE 4.6 mph - N/A   Clear
10:16 PM 30.2 °F 25.4 °F 24.8 °F 80% 30.29 in 10.0 mi SSE 4.6 mph - N/A   Clear
10:36 PM 30.2 °F - 24.8 °F 80% 30.29 in 10.0 mi Calm Calm - N/A   Clear
10:56 PM 30.2 °F - 26.6 °F 86% 30.29 in 10.0 mi Calm Calm - N/A   Clear
11:16 PM 30.2 °F - 24.8 °F 80% 30.29 in 10.0 mi Calm Calm - N/A   Clear
11:36 PM 28.4 °F 23.3 °F 23.0 °F 80% 30.29 in 10.0 mi East 4.6 mph - N/A   Clear
11:56 PM 26.6 °F 21.2 °F 21.2 °F 80% 30.29 in 10.0 mi East 4.6 mph - N/A   Clear